User: anonymous   Login
Location: Carella
(45.8167°N, 9.2667°E)
Time: 02:46:09
(UTC+00:00)
Language:

STARLINK-1211 - Orbit

View from above orbital plane
View from above orbital plane
View from above satellite
View from above satellite

Ground track
Ground track

The orbit data is extracted from the following two-line orbital elements,

1 45208U 20012AG  20192.91667824 -.00021774  00000-0 -14788-2 0  9994
2 45208  53.0001 309.2139 0001177  94.8145  93.0457 15.05606228 22528
Epoch (UTC): 10 July 2020 22:00:01
Eccentricity: 0.0001177
inclination: 53.0001°
perigee height: 549 km
apogee height: 550 km
right ascension of ascending node: 309.2139°
argument of perigee: 94.8145°
revolutions per day: 15.05606228
mean anomaly at epoch: 93.0457°
orbit number at epoch: 2252

The dashed part of the orbit path shows where the satellite is in the earth's shadow,  

DLR